Time,TemperatureF,DewpointF,PressureIn,WindDirection,WindDirectionDegrees,WindSpeedMPH,WindSpeedGustMPH,Humidity,HourlyPrecipIn,Conditions,Clouds,dailyrainin,SoftwareType,DateUTC
2013-02-11 00:02:00,24.0,18.0,29.67,West,273,7.0,22.0,79,0.00,,,0.00,,2013-02-11 06:02:00,
2013-02-11 00:11:00,24.0,18.0,29.67,West,273,7.0,22.0,79,0.00,,,0.00,,2013-02-11 06:11:00,
2013-02-11 00:21:00,24.0,18.0,29.68,NW,307,7.0,21.0,79,0.00,,,0.00,,2013-02-11 06:21:00,
2013-02-11 00:32:00,24.0,18.0,29.69,NNW,328,7.0,19.0,79,0.00,,,0.00,,2013-02-11 06:32:00,
2013-02-11 00:42:00,23.0,17.0,29.70,West,269,8.0,20.0,79,0.00,,,0.00,,2013-02-11 06:42:00,
2013-02-11 00:51:00,23.0,17.0,29.70,West,269,8.0,20.0,79,0.00,,,0.00,,2013-02-11 06:51:00,
2013-02-11 01:01:00,23.0,17.0,29.70,NNW,344,9.0,22.0,79,0.00,,,0.00,,2013-02-11 07:01:00,
2013-02-11 01:11:00,23.0,17.0,29.71,NNW,330,7.0,18.0,79,0.00,,,0.00,,2013-02-11 07:11:00,
2013-02-11 01:21:00,23.0,17.0,29.71,NNW,330,7.0,18.0,79,0.00,,,0.00,,2013-02-11 07:21:00,
2013-02-11 01:32:00,23.0,17.0,29.72,NNW,327,8.0,20.0,78,0.00,,,0.00,,2013-02-11 07:32:00,
2013-02-11 01:41:00,22.0,16.0,29.73,NW,318,10.0,19.0,78,0.00,,,0.00,,2013-02-11 07:41:00,
2013-02-11 01:52:00,22.0,16.0,29.73,NW,318,10.0,19.0,78,0.00,,,0.00,,2013-02-11 07:52:00,
2013-02-11 02:01:00,22.0,16.0,29.75,NW,317,10.0,24.0,78,0.00,,,0.00,,2013-02-11 08:01:00,
2013-02-11 02:11:00,22.0,16.0,29.75,NW,317,10.0,24.0,78,0.00,,,0.00,,2013-02-11 08:11:00,
2013-02-11 02:21:00,22.0,16.0,29.76,West,280,8.0,24.0,78,0.00,,,0.00,,2013-02-11 08:21:00,
2013-02-11 02:32:00,21.0,15.0,29.77,WSW,252,8.0,19.0,78,0.00,,,0.00,,2013-02-11 08:32:00,
2013-02-11 02:42:00,21.0,15.0,29.78,NW,317,10.0,23.0,78,0.00,,,0.00,,2013-02-11 08:42:00,
2013-02-11 02:52:00,21.0,15.0,29.78,NW,317,10.0,23.0,78,0.00,,,0.00,,2013-02-11 08:52:00,
2013-02-11 03:01:00,21.0,15.0,29.79,West,261,10.0,23.0,78,0.00,,,0.00,,2013-02-11 09:01:00,
2013-02-11 03:12:00,21.0,15.0,29.79,West,261,10.0,23.0,78,0.00,,,0.00,,2013-02-11 09:12:00,
2013-02-11 03:21:00,21.0,15.0,29.80,WSW,251,10.0,21.0,78,0.00,,,0.00,,2013-02-11 09:21:00,
2013-02-11 03:32:00,21.0,15.0,29.80,West,260,10.0,19.0,78,0.00,,,0.00,,2013-02-11 09:32:00,
2013-02-11 03:41:00,21.0,15.0,29.80,West,260,10.0,19.0,78,0.00,,,0.00,,2013-02-11 09:41:00,
2013-02-11 03:51:00,20.0,14.0,29.81,North,355,7.0,22.0,78,0.00,,,0.00,,2013-02-11 09:51:00,
2013-02-11 04:01:00,20.0,14.0,29.82,SW,232,8.0,19.0,78,0.00,,,0.00,,2013-02-11 10:01:00,
2013-02-11 04:11:00,20.0,14.0,29.82,SW,232,8.0,19.0,78,0.00,,,0.00,,2013-02-11 10:11:00,
2013-02-11 04:21:00,20.0,14.0,29.82,NNW,328,7.0,18.0,78,0.00,,,0.00,,2013-02-11 10:21:00,
2013-02-11 04:31:00,20.0,14.0,29.83,WNW,295,10.0,22.0,78,0.00,,,0.00,,2013-02-11 10:31:00,
2013-02-11 04:42:00,20.0,14.0,29.83,WNW,295,10.0,22.0,78,0.00,,,0.00,,2013-02-11 10:42:00,
2013-02-11 04:51:00,20.0,14.0,29.84,WSW,252,7.0,19.0,78,0.00,,,0.00,,2013-02-11 10:51:00,
2013-02-11 05:01:00,20.0,14.0,29.85,West,270,6.0,23.0,78,0.00,,,0.00,,2013-02-11 11:01:00,
2013-02-11 05:11:00,20.0,14.0,29.85,West,270,6.0,23.0,78,0.00,,,0.00,,2013-02-11 11:11:00,
2013-02-11 05:22:00,20.0,14.0,29.86,West,275,7.0,19.0,78,0.00,,,0.00,,2013-02-11 11:22:00,
2013-02-11 05:32:00,20.0,14.0,29.86,North,355,8.0,19.0,78,0.00,,,0.00,,2013-02-11 11:32:00,
2013-02-11 05:42:00,20.0,14.0,29.88,NNW,336,7.0,17.0,78,0.00,,,0.00,,2013-02-11 11:42:00,
2013-02-11 05:52:00,20.0,14.0,29.88,NNW,336,7.0,17.0,78,0.00,,,0.00,,2013-02-11 11:52:00,
2013-02-11 06:03:00,20.0,14.0,29.88,West,273,6.0,16.0,78,0.00,,,0.00,,2013-02-11 12:03:00,
2013-02-11 06:12:00,20.0,14.0,29.88,West,273,6.0,16.0,78,0.00,,,0.00,,2013-02-11 12:12:00,
2013-02-11 06:22:00,20.0,14.0,29.88,WNW,284,4.0,14.0,78,0.00,,,0.00,,2013-02-11 12:22:00,
2013-02-11 06:32:00,20.0,14.0,29.89,West,279,6.0,17.0,78,0.00,,,0.00,,2013-02-11 12:32:00,
2013-02-11 06:42:00,20.0,14.0,29.89,WNW,294,6.0,23.0,78,0.00,,,0.00,,2013-02-11 12:42:00,
2013-02-11 06:52:00,20.0,14.0,29.89,WNW,294,6.0,23.0,78,0.00,,,0.00,,2013-02-11 12:52:00,
2013-02-11 07:02:00,19.0,13.0,29.90,WNW,286,8.0,18.0,78,0.00,,,0.00,,2013-02-11 13:02:00,
2013-02-11 07:11:00,19.0,13.0,29.91,NW,310,7.0,20.0,78,0.00,,,0.00,,2013-02-11 13:11:00,
2013-02-11 07:22:00,19.0,13.0,29.91,NW,310,7.0,20.0,78,0.00,,,0.00,,2013-02-11 13:22:00,
2013-02-11 07:32:00,19.0,13.0,29.93,WNW,292,10.0,20.0,78,0.00,,,0.00,,2013-02-11 13:32:00,
2013-02-11 07:42:00,19.0,13.0,29.93,WNW,292,10.0,20.0,78,0.00,,,0.00,,2013-02-11 13:42:00,
2013-02-11 07:52:00,19.0,13.0,29.93,NW,322,6.0,24.0,77,0.00,,,0.00,,2013-02-11 13:52:00,
2013-02-11 08:02:00,19.0,13.0,29.95,NW,309,7.0,18.0,77,0.00,,,0.00,,2013-02-11 14:02:00,
2013-02-11 08:11:00,19.0,13.0,29.95,NW,309,7.0,18.0,77,0.00,,,0.00,,2013-02-11 14:11:00,
2013-02-11 08:22:00,19.0,13.0,29.96,WNW,294,6.0,15.0,77,0.00,,,0.00,,2013-02-11 14:22:00,
2013-02-11 08:33:00,19.0,13.0,29.97,NW,325,8.0,21.0,77,0.00,,,0.00,,2013-02-11 14:33:00,
2013-02-11 08:42:00,19.0,13.0,29.97,NW,325,8.0,21.0,77,0.00,,,0.00,,2013-02-11 14:42:00,
2013-02-11 08:53:00,19.0,13.0,29.98,West,279,8.0,16.0,77,0.00,,,0.00,,2013-02-11 14:53:00,
2013-02-11 09:02:00,19.0,13.0,29.98,SSW,209,6.0,16.0,77,0.00,,,0.00,,2013-02-11 15:02:00,
2013-02-11 09:11:00,19.0,13.0,29.98,SSW,209,6.0,16.0,77,0.00,,,0.00,,2013-02-11 15:11:00,
2013-02-11 09:22:00,19.0,13.0,29.98,WNW,283,6.0,15.0,77,0.00,,,0.00,,2013-02-11 15:22:00,
2013-02-11 09:32:00,19.0,13.0,29.99,SW,234,6.0,14.0,77,0.00,,,0.00,,2013-02-11 15:32:00,
2013-02-11 09:42:00,19.0,13.0,30.00,SW,228,6.0,18.0,77,0.00,,,0.00,,2013-02-11 15:42:00,
2013-02-11 09:52:00,19.0,13.0,30.00,SW,228,6.0,18.0,77,0.00,,,0.00,,2013-02-11 15:52:00,
2013-02-11 10:02:00,19.0,13.0,30.01,NNW,336,7.0,24.0,77,0.00,,,0.00,,2013-02-11 16:02:00,
2013-02-11 10:11:00,19.0,13.0,30.01,NNW,336,7.0,24.0,77,0.00,,,0.00,,2013-02-11 16:11:00,
2013-02-11 10:22:00,19.0,13.0,30.01,WNW,295,5.0,21.0,77,0.00,,,0.00,,2013-02-11 16:22:00,
2013-02-11 10:32:00,18.0,12.0,30.01,North,5,5.0,20.0,77,0.00,,,0.00,,2013-02-11 16:32:00,
2013-02-11 10:42:00,19.0,13.0,30.02,SW,227,5.0,15.0,77,0.00,,,0.00,,2013-02-11 16:42:00,
2013-02-11 10:52:00,19.0,13.0,30.02,SW,227,5.0,15.0,77,0.00,,,0.00,,2013-02-11 16:52:00,
2013-02-11 11:01:00,19.0,13.0,30.03,WNW,293,6.0,12.0,77,0.00,,,0.00,,2013-02-11 17:01:00,
2013-02-11 11:11:00,19.0,13.0,30.03,WNW,293,6.0,12.0,77,0.00,,,0.00,,2013-02-11 17:11:00,
2013-02-11 11:22:00,19.0,13.0,30.04,SW,220,6.0,17.0,77,0.00,,,0.00,,2013-02-11 17:22:00,
2013-02-11 11:32:00,19.0,13.0,30.05,NW,309,6.0,14.0,77,0.00,,,0.00,,2013-02-11 17:32:00,
2013-02-11 11:42:00,19.0,13.0,30.05,NW,309,6.0,14.0,77,0.00,,,0.00,,2013-02-11 17:42:00,
2013-02-11 11:53:00,19.0,13.0,30.06,West,280,6.0,17.0,76,0.00,,,0.00,,2013-02-11 17:53:00,
2013-02-11 12:01:00,19.0,13.0,30.06,NW,309,6.0,16.0,76,0.00,,,0.00,,2013-02-11 18:01:00,
2013-02-11 12:11:00,19.0,13.0,30.06,NW,309,6.0,16.0,76,0.00,,,0.00,,2013-02-11 18:11:00,
2013-02-11 12:21:00,19.0,13.0,30.06,WSW,252,8.0,16.0,76,0.00,,,0.00,,2013-02-11 18:21:00,
2013-02-11 12:32:00,20.0,14.0,30.05,West,261,7.0,16.0,76,0.00,,,0.00,,2013-02-11 18:32:00,
2013-02-11 12:42:00,20.0,14.0,30.05,West,261,7.0,16.0,76,0.00,,,0.00,,2013-02-11 18:42:00,
2013-02-11 12:53:00,20.0,14.0,30.06,West,271,6.0,17.0,77,0.00,,,0.00,,2013-02-11 18:53:00,
2013-02-11 13:02:00,20.0,14.0,30.06,WNW,301,6.0,14.0,76,0.00,,,0.00,,2013-02-11 19:02:00,
2013-02-11 13:11:00,20.0,14.0,30.06,WNW,301,6.0,14.0,76,0.00,,,0.00,,2013-02-11 19:11:00,
2013-02-11 13:21:00,20.0,14.0,30.06,NW,319,6.0,17.0,76,0.00,,,0.00,,2013-02-11 19:21:00,
2013-02-11 13:32:00,20.0,14.0,30.06,WNW,282,7.0,16.0,76,0.00,,,0.00,,2013-02-11 19:32:00,
2013-02-11 13:41:00,20.0,14.0,30.06,WNW,282,7.0,16.0,76,0.00,,,0.00,,2013-02-11 19:41:00,
2013-02-11 13:52:00,20.0,14.0,30.05,West,274,6.0,14.0,76,0.00,,,0.00,,2013-02-11 19:52:00,
2013-02-11 14:01:00,20.0,14.0,30.05,WSW,257,4.0,12.0,76,0.00,,,0.00,,2013-02-11 20:01:00,
2013-02-11 14:11:00,20.0,13.0,30.06,WNW,285,7.0,16.0,75,0.00,,,0.00,,2013-02-11 20:11:00,
2013-02-11 14:21:00,20.0,13.0,30.06,WNW,285,7.0,16.0,75,0.00,,,0.00,,2013-02-11 20:21:00,
2013-02-11 14:32:00,21.0,14.0,30.06,WNW,284,6.0,16.0,74,0.00,,,0.00,,2013-02-11 20:32:00,
2013-02-11 14:42:00,21.0,14.0,30.06,NW,307,5.0,10.0,73,0.00,,,0.00,,2013-02-11 20:42:00,
2013-02-11 14:52:00,21.0,14.0,30.06,NW,307,5.0,10.0,73,0.00,,,0.00,,2013-02-11 20:52:00,
2013-02-11 15:02:00,21.0,14.0,30.06,West,272,3.0,13.0,75,0.00,,,0.00,,2013-02-11 21:02:00,
2013-02-11 15:11:00,21.0,14.0,30.06,WSW,242,5.0,13.0,74,0.00,,,0.00,,2013-02-11 21:11:00,
2013-02-11 15:22:00,21.0,14.0,30.06,WSW,242,5.0,13.0,74,0.00,,,0.00,,2013-02-11 21:22:00,
2013-02-11 15:32:00,21.0,13.0,30.07,West,260,6.0,13.0,72,0.00,,,0.00,,2013-02-11 21:32:00,
2013-02-11 15:42:00,21.0,13.0,30.07,West,260,6.0,13.0,72,0.00,,,0.00,,2013-02-11 21:42:00,
2013-02-11 15:52:00,21.0,14.0,30.07,WSW,246,3.0,11.0,74,0.00,,,0.00,,2013-02-11 21:52:00,
2013-02-11 16:01:00,21.0,13.0,30.08,West,276,6.0,10.0,72,0.00,,,0.00,,2013-02-11 22:01:00,
2013-02-11 16:11:00,21.0,13.0,30.08,WNW,294,6.0,11.0,72,0.00,,,0.00,,2013-02-11 22:11:00,
2013-02-11 16:22:00,21.0,13.0,30.08,WNW,294,6.0,11.0,72,0.00,,,0.00,,2013-02-11 22:22:00,
2013-02-11 16:32:00,21.0,13.0,30.08,WSW,253,5.0,11.0,72,0.00,,,0.00,,2013-02-11 22:32:00,
2013-02-11 16:42:00,21.0,13.0,30.08,WSW,253,5.0,11.0,72,0.00,,,0.00,,2013-02-11 22:42:00,
2013-02-11 16:52:00,20.0,12.0,30.08,WSW,258,6.0,9.0,72,0.00,,,0.00,,2013-02-11 22:52:00,
2013-02-11 17:01:00,20.0,12.0,30.08,West,272,6.0,11.0,71,0.00,,,0.00,,2013-02-11 23:01:00,
2013-02-11 17:11:00,20.0,12.0,30.08,West,272,6.0,11.0,71,0.00,,,0.00,,2013-02-11 23:11:00,
2013-02-11 17:21:00,19.0,11.0,30.08,West,269,8.0,10.0,72,0.00,,,0.00,,2013-02-11 23:21:00,
2013-02-11 17:32:00,19.0,11.0,30.08,West,261,7.0,11.0,72,0.00,,,0.00,,2013-02-11 23:32:00,
2013-02-11 17:42:00,19.0,11.0,30.08,West,261,7.0,11.0,72,0.00,,,0.00,,2013-02-11 23:42:00,
2013-02-11 17:52:00,20.0,12.0,30.09,West,269,7.0,10.0,72,0.00,,,0.00,,2013-02-11 23:52:00,
2013-02-11 18:01:00,20.0,12.0,30.08,WSW,250,7.0,11.0,71,0.00,,,0.00,,2013-02-12 00:01:00,
2013-02-11 18:11:00,20.0,12.0,30.08,WSW,250,7.0,11.0,71,0.00,,,0.00,,2013-02-12 00:11:00,
2013-02-11 18:22:00,19.0,11.0,30.09,West,263,6.0,9.0,72,0.00,,,0.00,,2013-02-12 00:22:00,
2013-02-11 18:32:00,19.0,11.0,30.09,West,267,8.0,11.0,70,0.00,,,0.00,,2013-02-12 00:32:00,
2013-02-11 18:42:00,19.0,11.0,30.09,West,267,8.0,11.0,70,0.00,,,0.00,,2013-02-12 00:42:00,
2013-02-11 18:52:00,18.0,11.0,30.10,West,271,4.0,10.0,72,0.00,,,0.00,,2013-02-12 00:52:00,
2013-02-11 19:02:00,18.0,10.0,30.10,West,268,6.0,9.0,71,0.00,,,0.00,,2013-02-12 01:02:00,
2013-02-11 19:11:00,18.0,10.0,30.10,West,268,6.0,9.0,71,0.00,,,0.00,,2013-02-12 01:11:00,
2013-02-11 19:21:00,18.0,11.0,30.10,West,268,4.0,7.0,72,0.00,,,0.00,,2013-02-12 01:21:00,
2013-02-11 19:32:00,18.0,11.0,30.09,West,265,2.0,8.0,73,0.00,,,0.00,,2013-02-12 01:32:00,
2013-02-11 19:42:00,18.0,11.0,30.09,West,265,2.0,8.0,73,0.00,,,0.00,,2013-02-12 01:42:00,
2013-02-11 19:52:00,18.0,11.0,30.09,West,272,1.0,4.0,73,0.00,,,0.00,,2013-02-12 01:52:00,
2013-02-11 20:01:00,18.0,11.0,30.09,West,277,0.0,2.0,74,0.00,,,0.00,,2013-02-12 02:01:00,
2013-02-11 20:12:00,18.0,11.0,30.09,West,277,0.0,2.0,74,0.00,,,0.00,,2013-02-12 02:12:00,
2013-02-11 20:21:00,18.0,11.0,30.09,West,277,0.0,2.0,74,0.00,,,0.00,,2013-02-12 02:21:00,
2013-02-11 20:31:00,18.0,11.0,30.09,West,277,0.0,2.0,74,0.00,,,0.00,,2013-02-12 02:31:00,
2013-02-11 20:41:00,18.0,11.0,30.09,West,277,0.0,2.0,74,0.00,,,0.00,,2013-02-12 02:41:00,
2013-02-11 20:52:00,18.0,11.0,30.09,West,277,0.0,0.0,75,0.00,,,0.00,,2013-02-12 02:52:00,
2013-02-11 21:02:00,18.0,11.0,30.09,WSW,242,1.0,3.0,74,0.00,,,0.00,,2013-02-12 03:02:00,
2013-02-11 21:11:00,18.0,11.0,30.09,WSW,242,1.0,3.0,74,0.00,,,0.00,,2013-02-12 03:11:00,
2013-02-11 21:21:00,18.0,11.0,30.09,SSW,196,0.0,3.0,74,0.00,,,0.00,,2013-02-12 03:21:00,
2013-02-11 21:31:00,18.0,11.0,30.09,SSW,196,0.0,2.0,75,0.00,,,0.00,,2013-02-12 03:31:00,
2013-02-11 21:42:00,18.0,11.0,30.09,SSW,196,0.0,2.0,75,0.00,,,0.00,,2013-02-12 03:42:00,
2013-02-11 21:52:00,19.0,12.0,30.09,WSW,242,2.0,5.0,75,0.00,,,0.00,,2013-02-12 03:52:00,
2013-02-11 22:01:00,20.0,13.0,30.09,WSW,254,3.0,6.0,74,0.00,,,0.00,,2013-02-12 04:01:00,
2013-02-11 22:11:00,20.0,13.0,30.09,WSW,254,3.0,6.0,74,0.00,,,0.00,,2013-02-12 04:11:00,
2013-02-11 22:21:00,20.0,13.0,30.08,WSW,257,0.0,3.0,75,0.00,,,0.00,,2013-02-12 04:21:00,
2013-02-11 22:31:00,20.0,14.0,30.07,SSE,166,1.0,3.0,76,0.00,,,0.00,,2013-02-12 04:31:00,
2013-02-11 22:41:00,20.0,14.0,30.07,SSE,166,1.0,3.0,76,0.00,,,0.00,,2013-02-12 04:41:00,
2013-02-11 22:52:00,20.0,13.0,30.07,SSE,157,1.0,4.0,75,0.00,,,0.00,,2013-02-12 04:52:00,
2013-02-11 23:01:00,20.0,13.0,30.07,WSW,240,5.0,9.0,75,0.00,,,0.00,,2013-02-12 05:01:00,
2013-02-11 23:11:00,20.0,13.0,30.07,WSW,240,5.0,9.0,75,0.00,,,0.00,,2013-02-12 05:11:00,
2013-02-11 23:21:00,20.0,13.0,30.06,West,260,7.0,12.0,73,0.00,,,0.00,,2013-02-12 05:21:00,
2013-02-11 23:31:00,20.0,13.0,30.06,SW,231,3.0,8.0,74,0.00,,,0.00,,2013-02-12 05:31:00,
2013-02-11 23:42:00,20.0,13.0,30.06,SW,231,3.0,8.0,74,0.00,,,0.00,,2013-02-12 05:42:00,
2013-02-11 23:52:00,19.0,12.0,30.06,WSW,250,5.0,12.0,73,0.00,,,0.00,,2013-02-12 05:52:00,